Time,TemperatureF,DewpointF,PressureIn,WindDirection,WindDirectionDegrees,WindSpeedMPH,WindSpeedGustMPH,Humidity,HourlyPrecipIn,Conditions,Clouds,dailyrainin,SoftwareType,DateUTC
2013-07-05 01:54:00,50.0,-99.9,-100.00,NNE,32,0.0,0.0,-999,-99.99,,,-99.99,,2013-07-05 09:54:00,
2013-07-05 02:21:00,50.0,-99.9,-100.00,NNE,32,0.0,0.0,-999,-99.99,,,-99.99,,2013-07-05 10:21:00,
2013-07-05 02:28:00,50.0,-99.9,-100.00,NNE,32,0.0,0.0,-999,-99.99,,,-99.99,,2013-07-05 10:28:00,
2013-07-05 02:39:00,50.0,-99.9,-100.00,NNE,32,0.0,0.0,-999,-99.99,,,-99.99,,2013-07-05 10:39:00,
2013-07-05 02:48:00,50.0,-99.9,-100.00,NNE,32,0.0,0.0,-999,-99.99,,,-99.99,,2013-07-05 10:48:00,
2013-07-05 02:54:00,49.0,-99.9,-100.00,NNE,32,0.0,0.0,-999,-99.99,,,-99.99,,2013-07-05 10:54:00,
2013-07-05 03:18:00,49.0,-99.9,-100.00,NNE,32,0.0,0.0,-999,-99.99,,,-99.99,,2013-07-05 11:18:00,
2013-07-05 03:25:00,49.0,-99.9,-100.00,NNE,32,0.0,0.0,-999,-99.99,,,-99.99,,2013-07-05 11:25:00,
2013-07-05 03:52:00,49.0,-99.9,-100.00,NNE,32,0.0,0.0,-999,-99.99,,,-99.99,,2013-07-05 11:52:00,
2013-07-05 03:55:00,48.0,-99.9,-100.00,NNE,32,0.0,0.0,-999,-99.99,,,-99.99,,2013-07-05 11:55:00,
2013-07-05 04:27:00,48.0,-99.9,-100.00,NNE,32,0.0,0.0,-999,-99.99,,,-99.99,,2013-07-05 12:27:00,
2013-07-05 04:51:00,48.0,-99.9,-100.00,NNE,32,0.0,0.0,-999,-99.99,,,-99.99,,2013-07-05 12:51:00,
2013-07-05 05:55:00,48.0,-99.9,-100.00,NNE,32,0.0,0.0,-999,-99.99,,,-99.99,,2013-07-05 13:55:00,
2013-07-05 06:17:00,48.0,-99.9,-100.00,NNE,32,0.0,0.0,-999,-99.99,,,-99.99,,2013-07-05 14:17:00,
2013-07-05 06:29:00,48.0,-99.9,-100.00,NNE,32,0.0,0.0,-999,-99.99,,,-99.99,,2013-07-05 14:29:00,
2013-07-05 06:40:00,48.0,-99.9,-100.00,NNE,32,0.0,0.0,-999,-99.99,,,-99.99,,2013-07-05 14:40:00,
2013-07-05 06:48:00,48.0,-99.9,-100.00,NNE,32,0.0,0.0,-999,-99.99,,,-99.99,,2013-07-05 14:48:00,
2013-07-05 09:22:00,52.0,-99.9,-100.00,North,4,0.0,0.0,-999,-99.99,,,-99.99,,2013-07-05 17:22:00,
2013-07-05 09:33:00,52.0,-99.9,-100.00,North,4,0.0,0.0,-999,-99.99,,,-99.99,,2013-07-05 17:33:00,
2013-07-05 09:43:00,52.0,-99.9,-100.00,North,4,0.0,0.0,-999,-99.99,,,-99.99,,2013-07-05 17:43:00,
2013-07-05 12:23:00,58.0,-99.9,-100.00,North,0,0.0,0.0,-999,-99.99,,,-99.99,,2013-07-05 20:23:00,
2013-07-05 12:33:00,58.0,-99.9,-100.00,North,0,0.0,0.0,-999,-99.99,,,-99.99,,2013-07-05 20:33:00,
2013-07-05 12:43:00,58.0,-99.9,-100.00,North,0,0.0,0.0,-999,-99.99,,,-99.99,,2013-07-05 20:43:00,
2013-07-05 12:53:00,58.0,-99.9,-100.00,North,0,0.0,0.0,-999,-99.99,,,-99.99,,2013-07-05 20:53:00,
2013-07-05 13:12:00,59.0,-99.9,-100.00,North,0,0.0,0.0,-999,-99.99,,,-99.99,,2013-07-05 21:12:00,
2013-07-05 13:22:00,59.0,-99.9,-100.00,North,0,0.0,0.0,-999,-99.99,,,-99.99,,2013-07-05 21:22:00,
2013-07-05 13:34:00,59.0,-99.9,-100.00,North,0,0.0,0.0,-999,-99.99,,,-99.99,,2013-07-05 21:34:00,
2013-07-05 13:43:00,59.0,-99.9,-100.00,North,0,0.0,0.0,-999,-99.99,,,-99.99,,2013-07-05 21:43:00,
2013-07-05 13:53:00,59.0,-99.9,-100.00,North,0,0.0,0.0,-999,-99.99,,,-99.99,,2013-07-05 21:53:00,
2013-07-05 15:23:00,60.0,-99.9,-100.00,NNW,327,3.0,3.0,-999,-99.99,,,-99.99,,2013-07-05 23:23:00,
2013-07-05 15:32:00,60.0,-99.9,-100.00,NNW,327,3.0,3.0,-999,-99.99,,,-99.99,,2013-07-05 23:32:00,
2013-07-05 15:43:00,60.0,-99.9,-100.00,NNW,327,3.0,3.0,-999,-99.99,,,-99.99,,2013-07-05 23:43:00,
2013-07-05 15:53:00,60.0,-99.9,-100.00,NNW,327,3.0,3.0,-999,-99.99,,,-99.99,,2013-07-05 23:53:00,
2013-07-05 16:12:00,61.0,-99.9,-100.00,North,0,0.0,0.0,-999,-99.99,,,-99.99,,2013-07-06 00:12:00,
2013-07-05 16:22:00,61.0,-99.9,-100.00,North,0,0.0,0.0,-999,-99.99,,,-99.99,,2013-07-06 00:22:00,
2013-07-05 16:33:00,61.0,-99.9,-100.00,North,0,0.0,0.0,-999,-99.99,,,-99.99,,2013-07-06 00:33:00,
2013-07-05 16:43:00,61.0,-99.9,-100.00,North,0,0.0,0.0,-999,-99.99,,,-99.99,,2013-07-06 00:43:00,
2013-07-05 17:12:00,62.0,-99.9,-100.00,NW,319,0.0,0.0,-999,-99.99,,,-99.99,,2013-07-06 01:12:00,
2013-07-05 17:22:00,62.0,-99.9,-100.00,NW,319,0.0,0.0,-999,-99.99,,,-99.99,,2013-07-06 01:22:00,
2013-07-05 17:33:00,62.0,-99.9,-100.00,NW,319,0.0,0.0,-999,-99.99,,,-99.99,,2013-07-06 01:33:00,
2013-07-05 17:43:00,62.0,-99.9,-100.00,NW,319,0.0,0.0,-999,-99.99,,,-99.99,,2013-07-06 01:43:00,
2013-07-05 17:53:00,62.0,-99.9,-100.00,NW,319,0.0,0.0,-999,-99.99,,,-99.99,,2013-07-06 01:53:00,
2013-07-05 18:22:00,60.0,-99.9,-100.00,NW,319,0.0,0.0,-999,-99.99,,,-99.99,,2013-07-06 02:22:00,
2013-07-05 18:34:00,60.0,-99.9,-100.00,NW,319,0.0,0.0,-999,-99.99,,,-99.99,,2013-07-06 02:34:00,
2013-07-05 18:43:00,60.0,-99.9,-100.00,NW,319,0.0,0.0,-999,-99.99,,,-99.99,,2013-07-06 02:43:00,
2013-07-05 18:53:00,60.0,-99.9,-100.00,NW,319,0.0,0.0,-999,-99.99,,,-99.99,,2013-07-06 02:53:00,
2013-07-05 20:12:00,58.0,-99.9,-100.00,North,0,0.0,2.0,-999,-99.99,,,-99.99,,2013-07-06 04:12:00,
2013-07-05 20:22:00,58.0,-99.9,-100.00,North,0,0.0,2.0,-999,-99.99,,,-99.99,,2013-07-06 04:22:00,
2013-07-05 20:33:00,58.0,-99.9,-100.00,North,0,0.0,2.0,-999,-99.99,,,-99.99,,2013-07-06 04:33:00,
2013-07-05 20:43:00,58.0,-99.9,-100.00,North,0,0.0,2.0,-999,-99.99,,,-99.99,,2013-07-06 04:43:00,
2013-07-05 20:53:00,58.0,-99.9,-100.00,North,0,0.0,2.0,-999,-99.99,,,-99.99,,2013-07-06 04:53:00,
2013-07-05 21:12:00,57.0,-99.9,-100.00,North,9,0.0,0.0,-999,-99.99,,,-99.99,,2013-07-06 05:12:00,
2013-07-05 21:22:00,57.0,-99.9,-100.00,North,9,0.0,0.0,-999,-99.99,,,-99.99,,2013-07-06 05:22:00,
2013-07-05 21:34:00,57.0,-99.9,-100.00,North,9,0.0,0.0,-999,-99.99,,,-99.99,,2013-07-06 05:34:00,
2013-07-05 21:43:00,57.0,-99.9,-100.00,North,9,0.0,0.0,-999,-99.99,,,-99.99,,2013-07-06 05:43:00,
2013-07-05 21:53:00,57.0,-99.9,-100.00,North,9,0.0,0.0,-999,-99.99,,,-99.99,,2013-07-06 05:53:00,
2013-07-05 22:12:00,54.0,-99.9,-100.00,North,9,0.0,0.0,-999,-99.99,,,-99.99,,2013-07-06 06:12:00,
2013-07-05 22:22:00,54.0,-99.9,-100.00,North,9,0.0,0.0,-999,-99.99,,,-99.99,,2013-07-06 06:22:00,
2013-07-05 22:34:00,54.0,-99.9,-100.00,North,9,0.0,0.0,-999,-99.99,,,-99.99,,2013-07-06 06:34:00,
2013-07-05 22:43:00,54.0,-99.9,-100.00,North,9,0.0,0.0,-999,-99.99,,,-99.99,,2013-07-06 06:43:00,
2013-07-05 22:53:00,54.0,-99.9,-100.00,North,9,0.0,0.0,-999,-99.99,,,-99.99,,2013-07-06 06:53:00,
2013-07-05 23:12:00,53.0,-99.9,-100.00,North,9,0.0,0.0,-999,-99.99,,,-99.99,,2013-07-06 07:12:00,
2013-07-05 23:22:00,53.0,-99.9,-100.00,North,9,0.0,0.0,-999,-99.99,,,-99.99,,2013-07-06 07:22:00,
2013-07-05 23:33:00,53.0,-99.9,-100.00,North,9,0.0,0.0,-999,-99.99,,,-99.99,,2013-07-06 07:33:00,
2013-07-05 23:44:00,53.0,-99.9,-100.00,North,9,0.0,0.0,-999,-99.99,,,-99.99,,2013-07-06 07:44:00,
2013-07-05 23:52:00,53.0,-99.9,-100.00,North,9,0.0,0.0,-999,-99.99,,,-99.99,,2013-07-06 07:52:00,